[[{"header":{"parameterUnit":"m.s-1","parameterCategory":2,"la1":30.2991,"la2":30.254,"lo1":-89.0895,"lo2":-89.0444,"dy":0.0017,"dx":0.0017,"nx":28,"ny":28,"refTime":"2023-10-07T09:00:00:Z","depth":"0","parameterNumber":2,"parameterNumberName":"U-component_of_CURRENTS"},"data":[0,0,0,0,0,0,0,0,0,0,0,0,0,0,0,0,0,0,0,0,0,0,0,0,0,0,0,0,0,0,0,0,0,0,0,0,0,0,0,0,0,0,0,0,0,0,0,0,0,0,0,0,0,0,0,0,0,0,-0.2807,-0.2808,0,-0.2816,-0.2816,-0.2816,-0.2804,-0.2803,-0.2803,-0.2803,-0.2838,-0.2839,-0.2841,0,0,0,0,0,0,0,0,0,0,0,0,0,-0.2703,-0.2705,-0.2807,-0.2808,-0.2808,-0.2816,-0.2816,-0.2816,-0.2804,-0.2803,-0.2803,-0.2803,-0.2838,-0.2839,-0.2841,0,0,0,0,0,0,0,0,0,0,0,0,0,-0.2732,-0.2706,-0.2807,-0.2805,-0.2805,-0.2816,-0.2816,-0.2816,-0.2804,-0.2803,-0.2803,-0.2803,-0.2838,-0.2839,-0.2841,-0.2857,0,0,-0.2846,-0.2847,0,0,0,0,0,0,0,0,-0.273,-0.2735,-0.2805,-0.2805,-0.2805,-0.2811,-0.2792,-0.2832,-0.2804,-0.2801,-0.2803,-0.2803,-0.2834,-0.2836,-0.2834,-0.2859,-0.286,-0.2846,-0.2847,-0.2848,-0.2848,0,0,0,0,0,0,0,-0.2728,-0.2734,-0.2808,-0.2805,-0.2806,-0.2777,-0.2781,-0.2799,-0.2817,-0.2801,-0.2801,-0.2807,-0.2834,-0.2832,-0.2835,-0.2861,-0.2846,-0.2848,-0.2849,-0.2849,-0.2959,-0.2961,0,0,0,0,0,0,-0.2738,-0.2733,-0.2808,-0.2809,-0.2769,-0.278,-0.2784,-0.2807,-0.2817,-0.2818,-0.2807,-0.2806,-0.2829,-0.2833,-0.2836,-0.2901,-0.2848,-0.2849,-0.285,-0.2957,-0.2959,-0.2962,0,0,0,0,0,0,-0.2736,-0.2745,-0.2808,-0.2772,-0.2778,-0.2783,-0.2808,-0.2808,-0.2812,-0.2821,-0.2823,-0.2813,-0.2829,-0.2833,-0.2863,-0.29,-0.285,-0.2852,-0.2955,-0.2958,-0.296,-0.3001,0,0,0,0,0,0,-0.2733,-0.2744,-0.2761,-0.2773,-0.2781,-0.2843,-0.2809,-0.2808,-0.2817,-0.2816,-0.2827,-0.2829,-0.2829,-0.286,-0.2864,-0.2902,-0.2853,-0.2952,-0.2956,-0.296,-0.2998,-0.3005,-0.3012,0,0,0,0,0,-0.2729,-0.2765,-0.2763,-0.2771,-0.2806,-0.2845,-0.2848,-0.2846,-0.2818,-0.2842,-0.2835,-0.2829,-0.2886,-0.2863,-0.2867,-0.2906,-0.2951,-0.2955,-0.2959,-0.2995,-0.3004,-0.3012,0,0,0,0,0,0,-0.273,-0.2767,-0.2765,-0.281,-0.2836,-0.2845,-0.286,-0.2851,-0.2861,-0.2852,-0.2845,-0.2849,-0.2893,-0.2895,-0.2868,-0.2951,-0.2922,-0.2927,-0.2947,-0.2956,-0.2963,-0.2955,-0.2854,0,0,0,0,0,-0.2739,-0.2771,-0.2802,-0.2836,-0.2851,-0.2852,-0.2862,-0.2864,-0.2874,-0.2876,-0.2882,-0.2891,-0.2915,-0.2929,-0.2952,-0.2989,-0.2962,-0.3021,-0.3029,-0.3034,-0.3033,-0.3009,-0.3013,-0.2976,-0.2976,-0.2975,0,0,-0.2747,-0.277,-0.2788,-0.2837,-0.2848,-0.2893,-0.2858,-0.2886,-0.2918,-0.288,-0.2919,-0.2918,-0.2931,-0.2976,-0.2997,-0.2981,-0.3035,-0.304,-0.3044,-0.304,-0.3014,-0.3017,-0.302,-0.2979,-0.2978,-0.2978,0,0,-0.2785,-0.2803,-0.2845,-0.2876,-0.2908,-0.2919,-0.2932,-0.2952,-0.2957,-0.2992,-0.2974,-0.2987,-0.3027,-0.3037,-0.3047,-0.3108,-0.3074,-0.3128,-0.3154,-0.3132,-0.3133,-0.3135,-0.3112,-0.311,-0.3129,-0.3129,-0.3129,0,-0.2792,-0.2846,-0.2863,-0.2913,-0.2935,-0.2937,-0.2983,-0.3004,-0.3029,-0.3026,-0.3019,-0.3045,-0.3057,-0.3091,-0.3116,-0.3124,-0.3099,-0.3116,-0.3137,-0.3138,-0.3138,-0.3114,-0.3112,-0.3132,-0.3131,-0.3131,-0.3131,0,-0.2858,-0.2904,-0.2931,-0.2994,-0.3029,-0.3066,-0.3101,-0.3123,-0.3116,-0.3118,-0.3142,-0.3144,-0.3148,-0.317,-0.3162,-0.3184,-0.3161,-0.3146,-0.3106,-0.3144,-0.3117,-0.3114,-0.3135,-0.3134,-0.3134,-0.3133,0,0,-0.2844,-0.2957,-0.2961,-0.2992,-0.3066,-0.3091,-0.3155,-0.3191,-0.3195,-0.322,-0.3218,-0.3261,-0.3225,-0.3234,-0.3224,-0.3214,-0.3203,-0.3183,-0.3181,-0.3145,-0.3146,-0.3049,-0.3036,-0.318,-0.318,-0.318,-0.3126,0,-0.2877,-0.2979,-0.3026,-0.3102,-0.3148,-0.3176,-0.3225,-0.3255,-0.3265,-0.3269,-0.3261,-0.3268,-0.3264,-0.3251,-0.3243,-0.3213,-0.3197,-0.3218,-0.3128,-0.3126,-0.3021,-0.303,-0.292,-0.2855,-0.3123,-0.3123,-0.3122,0,-0.2897,-0.2964,-0.3055,-0.313,-0.3149,-0.3195,-0.3227,-0.3275,-0.3296,-0.3296,-0.3297,-0.3283,-0.3286,-0.3264,-0.3229,-0.3238,-0.3196,-0.317,-0.3166,-0.3056,-0.3023,-0.2862,-0.2839,-0.2833,-0.3117,-0.3118,-0.3118,0,-0.2838,-0.2959,-0.3023,-0.3057,-0.3163,-0.3183,-0.3223,-0.3264,-0.3254,-0.3304,-0.3273,-0.3299,-0.3262,-0.3247,-0.3193,-0.3208,-0.3127,-0.314,-0.3016,-0.3009,-0.2887,-0.2869,-0.2829,-0.3099,-0.31,-0.31,-0.31,0,-0.2827,-0.2864,-0.2996,-0.3027,-0.3044,-0.3149,-0.3142,-0.3191,-0.3217,-0.3171,-0.3262,-0.3205,-0.3247,-0.3198,-0.3185,-0.3076,-0.3116,-0.3013,-0.2983,-0.29,-0.2885,-0.285,-0.2879,-0.3098,-0.3098,-0.3099,-0.3099,0,-0.2723,-0.2835,-0.2881,-0.2997,-0.3013,-0.3016,-0.3043,-0.302,-0.3106,-0.3048,-0.3053,-0.3101,-0.3062,-0.3081,-0.3044,-0.3019,-0.2906,-0.2913,-0.2814,-0.2773,-0.2661,-0.2697,-0.2571,-0.2502,-0.2787,-0.2784,-0.2782,0,-0.2675,-0.27,-0.2796,-0.2781,-0.2818,-0.2836,-0.281,-0.2919,-0.2891,-0.2944,-0.288,-0.2886,-0.2839,-0.2793,-0.2773,-0.2745,-0.2747,-0.2619,-0.2633,-0.2627,-0.2647,-0.2643,-0.2595,-0.2499,-0.2495,-0.2491,-0.2488,0,-0.2529,-0.2564,-0.2596,-0.258,-0.2563,-0.2543,-0.2543,-0.2521,-0.2623,-0.2623,-0.2612,-0.2616,-0.2591,-0.2538,-0.2525,-0.2487,-0.2553,-0.254,-0.2557,-0.2431,-0.2399,-0.2327,-0.2578,-0.2455,-0.2459,-0.2461,-0.2463,-0.2464,-0.2362,-0.2333,-0.2362,-0.2325,-0.2305,-0.2256,-0.2201,-0.2236,-0.2221,-0.2245,-0.2325,-0.2351,-0.2368,-0.2343,-0.2304,-0.223,-0.2276,-0.22,-0.225,-0.2249,-0.216,-0.2333,-0.2162,-0.2163,-0.2165,-0.2166,-0.2167,0,-0.2143,-0.2132,-0.2086,-0.2062,-0.197,-0.2035,-0.1998,-0.1951,-0.1923,-0.2014,-0.204,-0.2137,-0.2088,-0.213,-0.2087,-0.2006,-0.1958,-0.196,-0.1959,-0.1928,-0.2092,-0.2058,-0.1826,-0.1826,-0.1826,-0.1826,-0.1826,-0.1826,-0.2019,-0.1926,-0.1927,-0.1742,-0.1714,-0.1579,-0.1547,-0.1543,-0.1594,-0.1664,-0.1793,-0.194,-0.2,-0.2123,-0.2021,-0.1919,-0.1884,-0.1778,-0.1822,-0.1997,-0.2025,-0.2051,-0.2025,-0.179,-0.179,-0.1573,-0.1572,-0.1571]},{"header":{"parameterUnit":"m.s-1","parameterCategory":2,"la1":30.2991,"la2":30.254,"lo1":-89.0895,"lo2":-89.0444,"dy":0.0017,"dx":0.0017,"nx":28,"ny":28,"refTime":"2023-10-07T09:00:00:Z","depth":"0","parameterNumber":3,"parameterNumberName":"V-component_of_CURRENTS"},"data":[0,0,0,0,0,0,0,0,0,0,0,0,0,0,0,0,0,0,0,0,0,0,0,0,0,0,0,0,0,0,0,0,0,0,0,0,0,0,0,0,0,0,0,0,0,0,0,0,0,0,0,0,0,0,0,0,0,0,-0.0524,-0.0522,0,-0.0427,-0.0426,-0.0424,-0.0375,-0.0375,-0.0374,-0.0374,-0.028,-0.0278,-0.0276,0,0,0,0,0,0,0,0,0,0,0,0,0,-0.0561,-0.0562,-0.0524,-0.0522,-0.0521,-0.0427,-0.0425,-0.0424,-0.0375,-0.0375,-0.0374,-0.0374,-0.0281,-0.0278,-0.0275,0,0,0,0,0,0,0,0,0,0,0,0,0,-0.0514,-0.0562,-0.0524,-0.0485,-0.048,-0.0427,-0.0425,-0.0424,-0.0375,-0.0375,-0.0374,-0.0374,-0.0282,-0.0278,-0.0275,-0.0256,0,0,-0.0264,-0.0262,0,0,0,0,0,0,0,0,-0.0517,-0.0513,-0.0492,-0.0487,-0.0482,-0.0412,-0.0404,-0.0368,-0.0375,-0.0415,-0.0374,-0.0374,-0.0324,-0.0317,-0.03,-0.0252,-0.0248,-0.0264,-0.0261,-0.026,-0.0259,0,0,0,0,0,0,0,-0.052,-0.0516,-0.0486,-0.049,-0.0484,-0.0436,-0.043,-0.0396,-0.0373,-0.0412,-0.0408,-0.0396,-0.0322,-0.0304,-0.0298,-0.0246,-0.0264,-0.026,-0.0258,-0.0257,-0.0174,-0.0173,0,0,0,0,0,0,-0.0536,-0.052,-0.0489,-0.0483,-0.0498,-0.0436,-0.0429,-0.0435,-0.0373,-0.0363,-0.0396,-0.0394,-0.031,-0.0302,-0.0294,-0.0265,-0.026,-0.0257,-0.0254,-0.0174,-0.0174,-0.0173,0,0,0,0,0,0,-0.0538,-0.0536,-0.0493,-0.0497,-0.0488,-0.0436,-0.0443,-0.0433,-0.0417,-0.0361,-0.0351,-0.039,-0.031,-0.0299,-0.0262,-0.0261,-0.0255,-0.0252,-0.0174,-0.0174,-0.0174,-0.021,0,0,0,0,0,0,-0.054,-0.0537,-0.0545,-0.0499,-0.0489,-0.0468,-0.0442,-0.0431,-0.0409,-0.0406,-0.0352,-0.0343,-0.0309,-0.0267,-0.0258,-0.0256,-0.0249,-0.0174,-0.0174,-0.0174,-0.0208,-0.0211,-0.0213,0,0,0,0,0,-0.0542,-0.0559,-0.0546,-0.0542,-0.0503,-0.0468,-0.0459,-0.042,-0.041,-0.0405,-0.0364,-0.0344,-0.0261,-0.0264,-0.0254,-0.0251,-0.0174,-0.0174,-0.0174,-0.0207,-0.021,-0.0213,0,0,0,0,0,0,-0.0578,-0.0554,-0.0539,-0.0548,-0.0512,-0.046,-0.0451,-0.0426,-0.039,-0.0389,-0.0338,-0.0326,-0.0295,-0.0269,-0.0274,-0.0227,-0.0216,-0.0214,-0.0246,-0.0248,-0.025,-0.0268,-0.0246,0,0,0,0,0,-0.059,-0.0598,-0.0558,-0.0563,-0.055,-0.0502,-0.0483,-0.0459,-0.042,-0.0405,-0.0362,-0.0322,-0.0286,-0.0264,-0.023,-0.0201,-0.018,-0.0194,-0.0197,-0.0199,-0.0206,-0.0185,-0.0186,-0.0173,-0.0173,-0.0173,0,0,-0.0604,-0.0591,-0.0594,-0.057,-0.0541,-0.0529,-0.0491,-0.0471,-0.0456,-0.04,-0.0369,-0.0328,-0.0281,-0.0248,-0.0232,-0.0225,-0.0186,-0.0198,-0.02,-0.0207,-0.0185,-0.0186,-0.0187,-0.0173,-0.0173,-0.0173,0,0,-0.0638,-0.0626,-0.0644,-0.0622,-0.0588,-0.0552,-0.0551,-0.0502,-0.0476,-0.0439,-0.0397,-0.0354,-0.0299,-0.0259,-0.0234,-0.0228,-0.02,-0.0222,-0.0242,-0.0221,-0.0222,-0.0223,-0.0178,-0.0175,-0.022,-0.022,-0.022,0,-0.0654,-0.0677,-0.0639,-0.0647,-0.0634,-0.0569,-0.0578,-0.0537,-0.0479,-0.0459,-0.0438,-0.035,-0.0304,-0.0262,-0.0254,-0.0232,-0.0214,-0.0236,-0.0225,-0.0226,-0.0226,-0.018,-0.0176,-0.0222,-0.0222,-0.0222,-0.0222,0,-0.07,-0.0714,-0.0721,-0.0711,-0.0685,-0.0684,-0.0625,-0.0596,-0.0553,-0.0509,-0.0458,-0.0387,-0.0337,-0.0312,-0.0276,-0.0253,-0.0237,-0.0233,-0.0222,-0.023,-0.018,-0.0175,-0.0225,-0.0224,-0.0223,-0.0223,0,0,-0.0754,-0.0757,-0.0762,-0.0771,-0.0726,-0.0712,-0.0681,-0.0635,-0.062,-0.0547,-0.0524,-0.0438,-0.0397,-0.0366,-0.0314,-0.0283,-0.0249,-0.0263,-0.0261,-0.0224,-0.0192,-0.0109,-0.0095,-0.0254,-0.0253,-0.0253,-0.015,0,-0.0804,-0.0854,-0.0825,-0.0845,-0.0863,-0.0794,-0.0768,-0.0713,-0.0653,-0.0609,-0.0524,-0.048,-0.0418,-0.0396,-0.0353,-0.0277,-0.0241,-0.0276,-0.0185,-0.0182,-0.0113,-0.0089,-0.0058,0.0042,-0.0145,-0.0144,-0.0143,0,-0.0869,-0.089,-0.0938,-0.0929,-0.0926,-0.0915,-0.0867,-0.0836,-0.0749,-0.0704,-0.0637,-0.0567,-0.0484,-0.0449,-0.0319,-0.0349,-0.0278,-0.0218,-0.0213,-0.0124,-0.0091,0.0016,0.0058,0.0195,-0.0135,-0.0136,-0.0136,0,-0.0951,-0.097,-0.1015,-0.1014,-0.0985,-0.0979,-0.095,-0.0873,-0.0837,-0.0769,-0.073,-0.0633,-0.0566,-0.0482,-0.0316,-0.0334,-0.0177,-0.0188,-0.0044,-0.0037,0.0015,0.0027,0.0193,-0.0121,-0.0121,-0.0121,-0.0122,0,-0.1035,-0.1066,-0.106,-0.1085,-0.1106,-0.1058,-0.105,-0.1007,-0.0934,-0.0885,-0.0789,-0.0718,-0.0576,-0.0448,-0.0338,-0.0146,-0.0187,-0.0038,-0.0005,0.0008,0.0017,0.0159,0.0219,-0.0117,-0.0118,-0.0119,-0.012,0,-0.1125,-0.113,-0.1171,-0.116,-0.1151,-0.1168,-0.1106,-0.1082,-0.102,-0.0955,-0.0932,-0.0772,-0.0599,-0.0432,-0.0261,-0.0148,0.0098,0.0069,0.0097,0.0131,0.0377,0.0432,0.0629,0.0703,0.0227,0.023,0.0232,0,-0.1183,-0.1218,-0.1228,-0.1228,-0.1222,-0.122,-0.1195,-0.1138,-0.1092,-0.0967,-0.0927,-0.0754,-0.0602,-0.0295,-0.0078,0.014,0.023,0.0295,0.0267,0.0414,0.0499,0.0524,0.0572,0.0328,0.0331,0.0334,0.0335,0,-0.1266,-0.1265,-0.1289,-0.1286,-0.1277,-0.1265,-0.1227,-0.1208,-0.1117,-0.1053,-0.0917,-0.0801,-0.0476,-0.0186,0.0117,0.0239,0.0409,0.0351,0.0484,0.0588,0.0643,0.0721,0.0252,0.0356,0.0354,0.0353,0.0352,0.0351,-0.1305,-0.1336,-0.1338,-0.1325,-0.1311,-0.1283,-0.127,-0.1214,-0.1159,-0.1037,-0.0916,-0.0718,-0.0286,0.0153,0.0313,0.0659,0.0603,0.0731,0.0786,0.0798,0.0875,0.0476,0.0627,0.0626,0.0626,0.0625,0.0625,0,-0.1348,-0.1353,-0.1351,-0.1341,-0.1308,-0.1293,-0.1251,-0.1221,-0.1158,-0.1032,-0.0895,-0.0425,0.0006,0.0394,0.0898,0.1075,0.1079,0.1154,0.1179,0.1204,0.0837,0.0848,0.1077,0.1077,0.1077,0.1076,0.1076,0.1076,-0.1361,-0.1378,-0.1366,-0.1314,-0.1294,-0.1254,-0.1231,-0.12,-0.1112,-0.0895,-0.0648,-0.0455,0.0152,0.1008,0.1456,0.1472,0.1603,0.1595,0.1669,0.1401,0.1364,0.1329,0.1354,0.1685,0.1686,0.1994,0.1997,0.2]}],[{"header":{"parameterUnit":"m.s-1","parameterCategory":2,"la1":30.2991,"la2":30.254,"lo1":-89.0895,"lo2":-89.0444,"dy":0.0017,"dx":0.0017,"nx":28,"ny":28,"refTime":"2023-10-07T09:00:00:Z","depth":"2","parameterNumber":2,"parameterNumberName":"U-component_of_CURRENTS"},"data":[0,0,0,0,0,0,0,0,0,0,0,0,0,0,0,0,0,0,0,0,0,0,0,0,0,0,0,0,0,0,0,0,0,0,0,0,0,0,0,0,0,0,0,0,0,0,0,0,0,0,0,0,0,0,0,0,0,0,-0.2569,-0.257,0,-0.26,-0.2599,-0.2599,-0.2583,-0.2583,-0.2583,-0.2583,-0.2635,-0.2636,-0.2637,0,0,0,0,0,0,0,0,0,0,0,0,0,-0.2452,-0.2453,-0.2568,-0.257,-0.2571,-0.26,-0.2599,-0.2599,-0.2583,-0.2583,-0.2583,-0.2583,-0.2634,-0.2636,-0.2638,0,0,0,0,0,0,0,0,0,0,0,0,0,-0.2486,-0.2454,-0.2568,-0.2573,-0.2574,-0.26,-0.2599,-0.2599,-0.2583,-0.2583,-0.2583,-0.2583,-0.2634,-0.2636,-0.2638,-0.2652,0,0,-0.2644,-0.2645,0,0,0,0,0,0,0,0,-0.2484,-0.249,-0.2571,-0.2573,-0.2574,-0.2595,-0.2577,-0.262,-0.2583,-0.2571,-0.2583,-0.2583,-0.2629,-0.2631,-0.2625,-0.2654,-0.2656,-0.2644,-0.2646,-0.2647,-0.2647,0,0,0,0,0,0,0,-0.2482,-0.2488,-0.2572,-0.2572,-0.2575,-0.2559,-0.2563,-0.2584,-0.2594,-0.2572,-0.2573,-0.259,-0.2629,-0.2623,-0.2626,-0.2657,-0.2644,-0.2646,-0.2648,-0.2648,-0.2753,-0.2755,0,0,0,0,0,0,-0.2498,-0.2486,-0.2571,-0.2574,-0.2538,-0.2562,-0.2566,-0.2581,-0.2593,-0.2597,-0.259,-0.2589,-0.2619,-0.2624,-0.2628,-0.2704,-0.2647,-0.2649,-0.265,-0.2752,-0.2754,-0.2755,0,0,0,0,0,0,-0.2496,-0.2505,-0.257,-0.2537,-0.2546,-0.2565,-0.2582,-0.2582,-0.2594,-0.2608,-0.2611,-0.2604,-0.2619,-0.2625,-0.2651,-0.2704,-0.2649,-0.2651,-0.275,-0.2752,-0.2755,-0.2819,0,0,0,0,0,0,-0.2492,-0.2504,-0.2527,-0.2539,-0.2549,-0.2612,-0.2583,-0.2583,-0.2608,-0.2607,-0.2621,-0.2624,-0.262,-0.2648,-0.2653,-0.2706,-0.2653,-0.2748,-0.2751,-0.2754,-0.2815,-0.2824,-0.2831,0,0,0,0,0,-0.2487,-0.2527,-0.2527,-0.2539,-0.2577,-0.2615,-0.2618,-0.2625,-0.2609,-0.2629,-0.262,-0.2625,-0.2671,-0.265,-0.2656,-0.2711,-0.2747,-0.275,-0.2754,-0.2812,-0.2822,-0.2831,0,0,0,0,0,0,-0.2495,-0.253,-0.2531,-0.258,-0.2607,-0.2616,-0.2637,-0.2637,-0.2644,-0.2639,-0.2634,-0.2638,-0.2686,-0.2684,-0.2661,-0.2749,-0.2715,-0.272,-0.2757,-0.2767,-0.2774,-0.2767,-0.2655,0,0,0,0,0,-0.2507,-0.254,-0.2569,-0.261,-0.262,-0.2627,-0.2644,-0.2652,-0.266,-0.2662,-0.2671,-0.2681,-0.2703,-0.2721,-0.2738,-0.2781,-0.2751,-0.2823,-0.2831,-0.2837,-0.2836,-0.2815,-0.2821,-0.2767,-0.2767,-0.2767,0,0,-0.2516,-0.2547,-0.2562,-0.2614,-0.2622,-0.266,-0.2635,-0.2671,-0.2702,-0.2669,-0.2706,-0.2711,-0.2719,-0.2764,-0.2788,-0.2771,-0.284,-0.2842,-0.2847,-0.2842,-0.2819,-0.2824,-0.2829,-0.2769,-0.2769,-0.2768,0,0,-0.2555,-0.2579,-0.2613,-0.2644,-0.2686,-0.2696,-0.2714,-0.2735,-0.274,-0.2779,-0.2761,-0.2787,-0.2827,-0.2836,-0.2846,-0.2908,-0.288,-0.2929,-0.2966,-0.2948,-0.2951,-0.2954,-0.2929,-0.2929,-0.2934,-0.2934,-0.2934,0,-0.257,-0.2616,-0.2632,-0.2679,-0.2704,-0.2717,-0.2755,-0.2774,-0.2805,-0.2809,-0.2807,-0.2845,-0.2862,-0.2898,-0.2924,-0.2929,-0.29,-0.2931,-0.2956,-0.2958,-0.296,-0.2933,-0.2933,-0.2938,-0.2937,-0.2937,-0.2937,0,-0.2623,-0.267,-0.2694,-0.2752,-0.2784,-0.2824,-0.2852,-0.2877,-0.2887,-0.2904,-0.294,-0.2945,-0.296,-0.2988,-0.2979,-0.3012,-0.2982,-0.2965,-0.2928,-0.2969,-0.2939,-0.2937,-0.2943,-0.2942,-0.2941,-0.294,0,0,-0.2618,-0.2713,-0.2721,-0.2748,-0.2822,-0.2845,-0.2899,-0.2938,-0.2958,-0.2996,-0.3008,-0.3063,-0.305,-0.3059,-0.3052,-0.3051,-0.3055,-0.3019,-0.3016,-0.2987,-0.3,-0.2903,-0.2891,-0.3032,-0.3032,-0.3032,-0.2976,0,-0.2648,-0.274,-0.278,-0.2851,-0.2884,-0.2914,-0.2953,-0.2993,-0.3026,-0.3047,-0.3054,-0.3082,-0.3082,-0.3086,-0.3085,-0.3064,-0.3051,-0.3071,-0.2971,-0.2969,-0.287,-0.2886,-0.2666,-0.259,-0.2973,-0.2973,-0.2973,0,-0.2663,-0.2728,-0.2803,-0.2872,-0.2884,-0.2935,-0.2975,-0.3019,-0.3062,-0.3078,-0.3104,-0.3108,-0.3126,-0.3106,-0.3083,-0.309,-0.3049,-0.3028,-0.3024,-0.2905,-0.2866,-0.2611,-0.2571,-0.2968,-0.2969,-0.2969,-0.2969,0,-0.2611,-0.2726,-0.2781,-0.2813,-0.2905,-0.2928,-0.2972,-0.3028,-0.3022,-0.3101,-0.3089,-0.3132,-0.3106,-0.3097,-0.3055,-0.307,-0.2996,-0.3009,-0.2879,-0.2871,-0.265,-0.2623,-0.2969,-0.2969,-0.2969,-0.2969,-0.2969,0,-0.2606,-0.2644,-0.2767,-0.2794,-0.2821,-0.291,-0.2924,-0.2977,-0.3014,-0.2988,-0.3089,-0.3044,-0.3095,-0.3053,-0.3045,-0.2941,-0.2982,-0.2878,-0.2847,-0.2668,-0.2644,-0.2945,-0.2943,-0.2967,-0.2967,-0.2968,-0.2968,0,-0.2513,-0.2614,-0.2659,-0.2769,-0.2791,-0.2807,-0.2843,-0.2834,-0.2925,-0.2886,-0.2897,-0.2948,-0.2922,-0.2941,-0.2914,-0.2884,-0.2838,-0.2779,-0.2567,-0.2512,-0.2736,-0.2738,-0.266,-0.2656,-0.2653,-0.265,-0.2648,0,-0.2473,-0.2492,-0.2587,-0.2582,-0.2627,-0.2662,-0.2643,-0.2751,-0.2736,-0.2791,-0.2734,-0.2748,-0.2707,-0.2661,-0.2628,-0.2596,-0.2687,-0.237,-0.2372,-0.2725,-0.2703,-0.2711,-0.2718,-0.2108,-0.2102,-0.2096,-0.2092,0,-0.2349,-0.2382,-0.241,-0.2406,-0.2408,-0.2398,-0.2414,-0.2397,-0.2494,-0.2495,-0.2486,-0.2491,-0.245,-0.2332,-0.2303,-0.2256,-0.2381,-0.2259,-0.265,-0.2229,-0.2201,-0.2182,-0.2206,-0.2044,-0.2049,-0.2052,-0.2055,-0.2057,-0.2212,-0.2189,-0.221,-0.2188,-0.218,-0.2142,-0.2096,-0.213,-0.2114,-0.2116,-0.2199,-0.2163,-0.2155,-0.2022,-0.1932,-0.1883,-0.2055,-0.1988,-0.2006,-0.2029,-0.1983,-0.1952,-0.1739,-0.1742,-0.1745,-0.1747,-0.1749,0,-0.2025,-0.2011,-0.1974,-0.1958,-0.1876,-0.1943,-0.1914,-0.1856,-0.1819,-0.1857,-0.1862,-0.1694,-0.1623,-0.1641,-0.1495,-0.1486,-0.1486,-0.1425,-0.1421,-0.1468,-0.151,-0.144,-0.1051,-0.1049,-0.1047,-0.1046,0,0,-0.1919,-0.1835,-0.1826,-0.1664,-0.1642,-0.1518,-0.1487,-0.1456,-0.146,-0.141,-0.1408,-0.1531,-0.1585,-0.1317,-0.1248,-0.113,-0.1289,-0.1071,-0.1623,-0.1663,-0.1703,-0.1818,-0.176,0,0,0,0,0]},{"header":{"parameterUnit":"m.s-1","parameterCategory":2,"la1":30.2991,"la2":30.254,"lo1":-89.0895,"lo2":-89.0444,"dy":0.0017,"dx":0.0017,"nx":28,"ny":28,"refTime":"2023-10-07T09:00:00:Z","depth":"2","parameterNumber":3,"parameterNumberName":"V-component_of_CURRENTS"},"data":[0,0,0,0,0,0,0,0,0,0,0,0,0,0,0,0,0,0,0,0,0,0,0,0,0,0,0,0,0,0,0,0,0,0,0,0,0,0,0,0,0,0,0,0,0,0,0,0,0,0,0,0,0,0,0,0,0,0,-0.0313,-0.0313,0,-0.0234,-0.0233,-0.0231,-0.018,-0.018,-0.018,-0.0179,-0.0095,-0.0093,-0.009,0,0,0,0,0,0,0,0,0,0,0,0,0,-0.0332,-0.0332,-0.0313,-0.0312,-0.0312,-0.0234,-0.0232,-0.0231,-0.018,-0.018,-0.018,-0.0179,-0.0096,-0.0093,-0.009,0,0,0,0,0,0,0,0,0,0,0,0,0,-0.0293,-0.0333,-0.0313,-0.0279,-0.0275,-0.0234,-0.0232,-0.0231,-0.018,-0.018,-0.0179,-0.0179,-0.0096,-0.0093,-0.009,-0.0071,0,0,-0.008,-0.0078,0,0,0,0,0,0,0,0,-0.0295,-0.0292,-0.0285,-0.0281,-0.0277,-0.0219,-0.0208,-0.0178,-0.018,-0.0213,-0.0179,-0.0179,-0.0138,-0.0131,-0.0112,-0.0067,-0.0063,-0.0079,-0.0077,-0.0076,-0.0075,0,0,0,0,0,0,0,-0.0298,-0.0294,-0.0278,-0.0284,-0.028,-0.0238,-0.0232,-0.0202,-0.0174,-0.021,-0.0207,-0.0203,-0.0135,-0.0115,-0.011,-0.0062,-0.008,-0.0077,-0.0075,-0.0073,0.0012,0.0013,0,0,0,0,0,0,-0.0319,-0.0298,-0.0281,-0.0276,-0.029,-0.0238,-0.0232,-0.0235,-0.0174,-0.0166,-0.0203,-0.0201,-0.0121,-0.0114,-0.0107,-0.0087,-0.0076,-0.0073,-0.0071,0.0012,0.0012,0.0013,0,0,0,0,0,0,-0.032,-0.0319,-0.0284,-0.0287,-0.028,-0.0239,-0.0242,-0.0234,-0.0223,-0.017,-0.0161,-0.0202,-0.0121,-0.0111,-0.0074,-0.0083,-0.0071,-0.0068,0.0012,0.0012,0.0013,-0.0043,0,0,0,0,0,0,-0.0321,-0.032,-0.0333,-0.0289,-0.0281,-0.0268,-0.0242,-0.0232,-0.0221,-0.0218,-0.0166,-0.0157,-0.012,-0.0079,-0.0071,-0.0078,-0.0066,0.0011,0.0012,0.0012,-0.0042,-0.0045,-0.0047,0,0,0,0,0,-0.0322,-0.0344,-0.0334,-0.0332,-0.03,-0.0269,-0.026,-0.0227,-0.0222,-0.0217,-0.0175,-0.0159,-0.007,-0.0076,-0.0066,-0.0073,0.0011,0.0012,0.0012,-0.004,-0.0044,-0.0047,0,0,0,0,0,0,-0.036,-0.0339,-0.0328,-0.0343,-0.0312,-0.0261,-0.0259,-0.0238,-0.0201,-0.0202,-0.0151,-0.0139,-0.0113,-0.0082,-0.009,-0.0045,-0.0029,-0.0026,-0.0072,-0.0075,-0.0078,-0.0093,-0.0063,0,0,0,0,0,-0.0377,-0.0387,-0.0351,-0.0362,-0.035,-0.0307,-0.0294,-0.0273,-0.0234,-0.0219,-0.0178,-0.0137,-0.0101,-0.008,-0.0044,-0.0018,0.0011,-0.0016,-0.0019,-0.0022,-0.0026,0.0006,0.0005,0.0015,0.0015,0.0015,0,0,-0.0392,-0.0386,-0.0389,-0.0371,-0.0344,-0.0332,-0.0298,-0.0285,-0.027,-0.0216,-0.0186,-0.0149,-0.0096,-0.0065,-0.0051,-0.0041,-0.0006,-0.0021,-0.0024,-0.0026,0.0006,0.0005,0.0004,0.0015,0.0015,0.0015,0,0,-0.0429,-0.0424,-0.0441,-0.0423,-0.0398,-0.0363,-0.0365,-0.0319,-0.0293,-0.026,-0.0218,-0.0182,-0.0127,-0.0084,-0.0058,-0.0054,-0.0026,-0.005,-0.0073,-0.0043,-0.0043,-0.0044,0.0,0.0004,-0.0048,-0.0048,-0.0048,0,-0.0452,-0.0473,-0.0439,-0.0449,-0.0437,-0.0382,-0.0386,-0.0349,-0.0296,-0.0276,-0.0261,-0.0175,-0.0134,-0.0089,-0.0085,-0.0062,-0.0039,-0.0068,-0.0048,-0.0048,-0.0048,-0.0002,0.0003,-0.0051,-0.0051,-0.005,-0.005,0,-0.0496,-0.0513,-0.052,-0.0511,-0.0485,-0.0486,-0.0427,-0.0399,-0.0364,-0.0328,-0.0282,-0.0215,-0.0165,-0.0147,-0.0114,-0.0089,-0.0071,-0.0061,-0.0046,-0.0052,-0.0003,0.0003,-0.0055,-0.0054,-0.0053,-0.0052,0,0,-0.0556,-0.0554,-0.0561,-0.0565,-0.0524,-0.0508,-0.0473,-0.0427,-0.0415,-0.0354,-0.0328,-0.0257,-0.0227,-0.0195,-0.0147,-0.0115,-0.0085,-0.0093,-0.0091,-0.006,-0.0012,0.005,0.0064,-0.008,-0.008,-0.0079,0.0024,0,-0.0605,-0.065,-0.0619,-0.0634,-0.0643,-0.0574,-0.0543,-0.0492,-0.0443,-0.0401,-0.0324,-0.0291,-0.0242,-0.0227,-0.0183,-0.0111,-0.0073,-0.0113,-0.0,0.0003,0.0051,0.0071,0.0048,0.0141,0.003,0.0031,0.0032,0,-0.0667,-0.0686,-0.0723,-0.07,-0.0693,-0.0686,-0.063,-0.0598,-0.0518,-0.048,-0.0424,-0.0365,-0.029,-0.0261,-0.0134,-0.0166,-0.0097,-0.004,-0.0035,0.0045,0.0077,0.013,0.0157,0.0043,0.0042,0.0041,0.004,0,-0.0743,-0.0757,-0.0791,-0.0788,-0.0748,-0.0741,-0.0711,-0.064,-0.0604,-0.0545,-0.0513,-0.0421,-0.0363,-0.0274,-0.0129,-0.0146,0.0012,0.0006,0.0133,0.0138,0.0154,0.016,0.0082,0.0082,0.0082,0.0082,0.0081,0,-0.0823,-0.085,-0.0839,-0.0861,-0.0877,-0.0821,-0.0815,-0.0773,-0.0702,-0.0662,-0.0573,-0.0508,-0.0368,-0.0245,-0.0141,0.0037,0.0011,0.0138,0.017,0.0137,0.014,0.0078,0.0076,0.0086,0.0085,0.0084,0.0083,0,-0.0911,-0.0912,-0.0944,-0.0927,-0.0921,-0.0938,-0.0881,-0.0862,-0.0801,-0.0744,-0.0725,-0.0567,-0.0408,-0.0242,-0.0072,0.0037,0.018,0.0245,0.0211,0.0238,0.0283,0.0277,0.0379,0.0382,0.0385,0.0387,0.0389,0,-0.097,-0.0998,-0.1003,-0.1008,-0.1009,-0.1011,-0.099,-0.0929,-0.0891,-0.0766,-0.0728,-0.0567,-0.0426,-0.0127,0.0076,0.0286,0.0269,0.0388,0.0354,0.0293,0.0314,0.0304,0.0295,0.0355,0.0357,0.0358,0.0359,0,-0.1058,-0.1056,-0.1074,-0.1079,-0.1082,-0.1071,-0.1042,-0.1024,-0.0929,-0.0869,-0.074,-0.0631,-0.0325,-0.0074,0.0214,0.0325,0.035,0.042,0.0368,0.0287,0.0279,0.0297,0.0287,0.0369,0.0368,0.0367,0.0367,0.0366,-0.1109,-0.1142,-0.1139,-0.1135,-0.1129,-0.1107,-0.1097,-0.1041,-0.0986,-0.086,-0.075,-0.0557,-0.0309,0.0107,0.0305,0.0483,0.0466,0.05,0.0492,0.0484,0.0466,0.0464,0.0586,0.0586,0.0586,0.0586,0.0586,0,-0.1163,-0.1171,-0.1172,-0.1169,-0.1142,-0.1131,-0.1091,-0.1048,-0.0983,-0.0859,-0.0724,-0.0433,-0.0141,0.0107,0.0406,0.0581,0.0535,0.0598,0.0505,0.0495,0.0486,0.0463,0.0584,0.0585,0.0585,0.0586,0,0,-0.1185,-0.1208,-0.1193,-0.1155,-0.1142,-0.1106,-0.1083,-0.1025,-0.0929,-0.0796,-0.0651,-0.0437,-0.0134,0.0082,0.0302,0.0452,0.0416,0.0455,0.044,0.0293,0.0281,0.0417,0.0371,0,0,0,0,0]}],[{"header":{"parameterUnit":"m.s-1","parameterCategory":2,"la1":30.2991,"la2":30.254,"lo1":-89.0895,"lo2":-89.0444,"dy":0.0017,"dx":0.0017,"nx":28,"ny":28,"refTime":"2023-10-07T09:00:00:Z","depth":"4","parameterNumber":2,"parameterNumberName":"U-component_of_CURRENTS"},"data":[0,0,0,0,0,0,0,0,0,0,0,0,0,0,0,0,0,0,0,0,0,0,0,0,0,0,0,0,0,0,0,0,0,0,0,0,0,0,0,0,0,0,0,0,0,0,0,0,0,0,0,0,0,0,0,0,0,0,-0.1357,-0.1358,0,-0.1408,-0.1408,-0.1409,-0.1453,-0.1454,-0.1454,-0.1455,-0.1445,-0.1444,-0.1443,0,0,0,0,0,0,0,0,0,0,0,0,0,-0.1303,-0.1304,-0.1357,-0.1358,-0.1359,-0.1408,-0.1408,-0.1409,-0.1453,-0.1454,-0.1455,-0.1455,-0.1445,-0.1444,-0.1443,0,0,0,0,0,0,0,0,0,0,0,0,0,-0.1337,-0.1304,-0.1357,-0.1387,-0.139,-0.1407,-0.1408,-0.1409,-0.1453,-0.1454,-0.1455,-0.1456,-0.1446,-0.1444,-0.1443,-0.1419,0,0,-0.144,-0.1439,0,0,0,0,0,0,0,0,-0.1335,-0.1339,-0.1382,-0.1385,-0.1389,-0.1426,-0.1386,-0.141,-0.1453,-0.1429,-0.1455,-0.1456,-0.1433,-0.1433,-0.144,-0.1419,-0.1418,-0.144,-0.1439,-0.1438,-0.1438,0,0,0,0,0,0,0,-0.1332,-0.1337,-0.1377,-0.1383,-0.1387,-0.1399,-0.1405,-0.1391,-0.1424,-0.1431,-0.1434,-0.144,-0.1434,-0.1441,-0.144,-0.1418,-0.144,-0.1439,-0.1438,-0.1437,-0.1454,-0.1455,0,0,0,0,0,0,-0.1326,-0.1335,-0.1375,-0.1378,-0.1364,-0.1399,-0.1406,-0.1412,-0.1425,-0.1429,-0.144,-0.1442,-0.1443,-0.1442,-0.144,-0.1499,-0.1438,-0.1437,-0.1437,-0.1453,-0.1454,-0.1455,0,0,0,0,0,0,-0.1325,-0.1329,-0.1373,-0.1358,-0.1365,-0.1399,-0.1407,-0.1413,-0.1445,-0.1433,-0.1435,-0.1468,-0.1444,-0.1442,-0.1461,-0.1496,-0.1437,-0.1436,-0.1451,-0.1453,-0.1455,-0.1562,0,0,0,0,0,0,-0.1323,-0.1328,-0.1343,-0.1357,-0.1365,-0.1402,-0.1406,-0.1413,-0.1446,-0.1451,-0.1457,-0.1456,-0.1444,-0.1463,-0.146,-0.1493,-0.1435,-0.145,-0.1452,-0.1454,-0.1557,-0.1567,-0.1576,0,0,0,0,0,-0.1321,-0.1337,-0.1343,-0.1349,-0.138,-0.1403,-0.1408,-0.1435,-0.1447,-0.1466,-0.1479,-0.1457,-0.1474,-0.1464,-0.146,-0.1493,-0.1449,-0.1451,-0.1454,-0.1553,-0.1565,-0.1575,0,0,0,0,0,0,-0.1319,-0.1343,-0.1351,-0.1373,-0.1394,-0.1411,-0.1438,-0.1447,-0.1473,-0.1488,-0.1472,-0.1472,-0.1502,-0.1477,-0.1466,-0.1502,-0.1457,-0.1459,-0.1533,-0.1545,-0.1554,-0.1543,-0.1434,0,0,0,0,0,-0.1324,-0.1346,-0.1364,-0.1384,-0.14,-0.1421,-0.1439,-0.1457,-0.1475,-0.149,-0.1495,-0.1499,-0.1504,-0.1511,-0.1507,-0.1525,-0.1502,-0.1542,-0.1551,-0.1559,-0.1547,-0.1564,-0.1574,-0.1464,-0.1464,-0.1464,0,0,-0.1328,-0.1344,-0.1357,-0.1386,-0.1409,-0.1434,-0.1435,-0.1474,-0.1501,-0.148,-0.1529,-0.1532,-0.1515,-0.1546,-0.1556,-0.1534,-0.1581,-0.1563,-0.157,-0.1552,-0.1568,-0.1578,-0.1588,-0.1466,-0.1465,-0.1465,0,0,-0.1346,-0.1366,-0.1394,-0.1412,-0.1451,-0.1464,-0.1479,-0.1513,-0.1541,-0.1577,-0.1576,-0.1597,-0.1606,-0.1607,-0.1605,-0.1656,-0.163,-0.1664,-0.1706,-0.1725,-0.1734,-0.1742,-0.1738,-0.1745,-0.167,-0.1671,-0.1671,0,-0.1354,-0.1385,-0.1405,-0.1433,-0.1457,-0.1479,-0.1512,-0.1537,-0.1575,-0.1601,-0.1606,-0.1637,-0.163,-0.1656,-0.1685,-0.1677,-0.1681,-0.167,-0.1738,-0.1745,-0.1752,-0.1746,-0.1752,-0.1676,-0.1675,-0.1675,-0.1674,0,-0.138,-0.1417,-0.1438,-0.148,-0.1506,-0.154,-0.1572,-0.1608,-0.1642,-0.1668,-0.1717,-0.1716,-0.1734,-0.1742,-0.1733,-0.1777,-0.1764,-0.1751,-0.1713,-0.1769,-0.1759,-0.1764,-0.1684,-0.1682,-0.168,-0.1679,0,0,-0.1365,-0.1443,-0.1452,-0.1485,-0.1537,-0.1559,-0.161,-0.1661,-0.1702,-0.1741,-0.179,-0.181,-0.1825,-0.182,-0.1817,-0.183,-0.1887,-0.1822,-0.1821,-0.1824,-0.1928,-0.1814,-0.1807,-0.1906,-0.1908,-0.1908,-0.1908,0,-0.1384,-0.1446,-0.1482,-0.1544,-0.1579,-0.1618,-0.1665,-0.1714,-0.1758,-0.181,-0.1824,-0.1865,-0.1852,-0.1875,-0.1893,-0.1881,-0.1902,-0.1887,-0.1866,-0.1864,-0.1762,-0.1809,-0.1912,-0.1911,-0.1912,-0.1913,-0.1913,0,-0.1386,-0.1435,-0.1505,-0.1588,-0.161,-0.1654,-0.1729,-0.1776,-0.1845,-0.1879,-0.192,-0.1937,-0.1961,-0.1945,-0.1956,-0.1957,-0.1957,-0.1941,-0.1941,-0.1792,-0.1757,-0.1838,-0.192,-0.1919,-0.1919,-0.1918,-0.1918,0,-0.1348,-0.1442,-0.1503,-0.1528,-0.1626,-0.1677,-0.1733,-0.1808,-0.186,-0.1927,-0.1967,-0.1995,-0.2021,-0.2017,-0.2,-0.1994,-0.2003,-0.1985,-0.1878,-0.1869,-0.1925,-0.1917,-0.2005,-0.2005,-0.2005,-0.2005,-0.2005,0,-0.1331,-0.1381,-0.1501,-0.1531,-0.1617,-0.1686,-0.1776,-0.1826,-0.1911,-0.1953,-0.2013,-0.2027,-0.2049,-0.2058,-0.2027,-0.1957,-0.203,-0.1879,-0.1863,-0.1971,-0.1967,-0.1929,-0.192,-0.2005,-0.2005,-0.2005,-0.2005,0,-0.1271,-0.1352,-0.1425,-0.1551,-0.1604,-0.1662,-0.1803,-0.1844,-0.1941,-0.1991,-0.2015,-0.2078,-0.2061,-0.2067,-0.205,-0.1983,-0.1925,-0.1894,-0.2007,-0.1998,-0.177,-0.1767,-0.1749,-0.1745,-0.1742,-0.1739,-0.1736,0,-0.1229,-0.1267,-0.1422,-0.1479,-0.1549,-0.1659,-0.1721,-0.1839,-0.1869,-0.1983,-0.1978,-0.2033,-0.2043,-0.1923,-0.1945,-0.1877,-0.186,-0.1831,-0.1793,-0.1759,-0.1746,-0.1748,-0.1749,-0.1731,-0.173,-0.1729,-0.1728,0,-0.1147,-0.1223,-0.1291,-0.1419,-0.1507,-0.1582,-0.1677,-0.1699,-0.1799,-0.1912,-0.1879,-0.1867,-0.1861,-0.1822,-0.1807,-0.1755,-0.1836,-0.1794,-0.18,-0.1764,-0.1737,-0.1727,-0.1733,-0.1717,-0.1718,-0.1719,-0.172,0,-0.1077,-0.1109,-0.1222,-0.1326,-0.1427,-0.1461,-0.1535,-0.1563,-0.1618,-0.1734,-0.1713,-0.1758,-0.1826,-0.176,-0.1729,-0.1683,-0.1644,-0.1581,-0.1597,-0.1611,-0.1565,-0.151,-0.1402,0,0,0,0,0,-0.0989,-0.1033,-0.1119,-0.122,-0.1311,-0.1367,-0.1474,-0.1537,-0.1645,-0.1571,-0.1638,-0.1609,-0.1573,-0.1607,-0.1524,-0.1666,-0.1655,-0.1565,-0.1594,-0.1651,-0.1665,-0.1624,0,0,0,0,0,0,-0.0943,-0.1013,-0.1077,-0.1105,-0.1143,-0.1214,-0.1267,-0.1344,-0.1316,-0.1432,-0.1417,-0.1507,-0.1493,-0.1581,-0.1485,-0.1495,-0.1479,-0.1606,-0.1602,-0.1643,-0.1656,-0.1667,-0.1629,0,0,0,0,0]},{"header":{"parameterUnit":"m.s-1","parameterCategory":2,"la1":30.2991,"la2":30.254,"lo1":-89.0895,"lo2":-89.0444,"dy":0.0017,"dx":0.0017,"nx":28,"ny":28,"refTime":"2023-10-07T09:00:00:Z","depth":"4","parameterNumber":3,"parameterNumberName":"V-component_of_CURRENTS"},"data":[0,0,0,0,0,0,0,0,0,0,0,0,0,0,0,0,0,0,0,0,0,0,0,0,0,0,0,0,0,0,0,0,0,0,0,0,0,0,0,0,0,0,0,0,0,0,0,0,0,0,0,0,0,0,0,0,0,0,-0.003,-0.003,0,0.0006,0.0006,0.0007,0.0041,0.0041,0.0041,0.0042,0.0134,0.0136,0.0138,0,0,0,0,0,0,0,0,0,0,0,0,0,-0.0033,-0.0033,-0.003,-0.003,-0.003,0.0006,0.0006,0.0007,0.0041,0.0041,0.0042,0.0042,0.0133,0.0135,0.0138,0,0,0,0,0,0,0,0,0,0,0,0,0,-0.0017,-0.0033,-0.0031,-0.0009,-0.0007,0.0006,0.0006,0.0007,0.0041,0.0041,0.0042,0.0042,0.0132,0.0135,0.0138,0.0147,0,0,0.0148,0.0149,0,0,0,0,0,0,0,0,-0.0018,-0.0017,-0.0013,-0.001,-0.0008,0.0019,0.0039,0.0056,0.004,0.0023,0.0042,0.0042,0.01,0.0105,0.0111,0.0151,0.0155,0.0148,0.015,0.0151,0.0152,0,0,0,0,0,0,0,-0.0019,-0.0018,-0.0015,-0.0012,-0.0009,0.0012,0.0014,0.0043,0.0059,0.0025,0.0027,0.003,0.0101,0.0108,0.0114,0.0156,0.0148,0.0151,0.0153,0.0154,0.0219,0.0219,0,0,0,0,0,0,-0.0028,-0.002,-0.0017,-0.0014,-0.0012,0.0011,0.0014,0.001,0.0058,0.0065,0.003,0.0032,0.0102,0.011,0.0117,0.0135,0.0151,0.0154,0.0156,0.0219,0.0219,0.0218,0,0,0,0,0,0,-0.0028,-0.0028,-0.0018,-0.0016,-0.0013,0.001,0.0006,0.0011,0.0017,0.0061,0.0069,0.0031,0.0103,0.0113,0.0139,0.0139,0.0156,0.0159,0.0219,0.0219,0.0219,0.0169,0,0,0,0,0,0,-0.0028,-0.0029,-0.0034,-0.0017,-0.0014,-0.0016,0.0005,0.0011,0.0017,0.002,0.0065,0.0074,0.0104,0.0134,0.0142,0.0144,0.0161,0.0219,0.0219,0.0219,0.0171,0.0167,0.0164,0,0,0,0,0,-0.0029,-0.0044,-0.0035,-0.0034,-0.0022,-0.0016,-0.0013,0.0007,0.0017,0.0015,0.0046,0.0072,0.0138,0.0137,0.0146,0.0149,0.0219,0.0219,0.0219,0.0172,0.0168,0.0164,0,0,0,0,0,0,-0.0048,-0.0042,-0.0031,-0.0043,-0.0031,-0.0011,-0.0014,0.0001,0.0023,0.0025,0.007,0.0081,0.0102,0.0131,0.0128,0.0166,0.0183,0.0185,0.0145,0.0141,0.0138,0.0137,0.0164,0,0,0,0,0,-0.0055,-0.0065,-0.005,-0.0059,-0.0057,-0.0036,-0.0031,-0.0019,0.0002,0.0011,0.0046,0.008,0.0108,0.0128,0.0155,0.0177,0.0217,0.0185,0.0182,0.0178,0.0184,0.0245,0.0247,0.0217,0.0217,0.0217,0,0,-0.0065,-0.0062,-0.0069,-0.0063,-0.0055,-0.0057,-0.0032,-0.0033,-0.0027,0.0018,0.0038,0.0066,0.0109,0.0131,0.0144,0.0157,0.0205,0.0178,0.0175,0.0182,0.0245,0.0248,0.025,0.0217,0.0217,0.0217,0,0,-0.0097,-0.009,-0.0111,-0.0104,-0.0096,-0.0079,-0.0081,-0.0062,-0.0046,-0.0028,0.0007,0.0036,0.0078,0.0113,0.0134,0.0129,0.0179,0.0135,0.0125,0.0183,0.0186,0.019,0.023,0.0238,0.014,0.014,0.014,0,-0.0107,-0.0127,-0.0114,-0.0127,-0.012,-0.0092,-0.0101,-0.0085,-0.0054,-0.0034,-0.0029,0.0044,0.007,0.0116,0.0108,0.0122,0.0159,0.0136,0.0179,0.0184,0.0188,0.0229,0.0238,0.0137,0.0138,0.0138,0.0138,0,-0.0149,-0.0162,-0.0174,-0.0176,-0.0166,-0.0172,-0.0144,-0.0128,-0.0104,-0.0076,-0.0032,0.0009,0.0058,0.0066,0.0082,0.0128,0.0144,0.0162,0.0189,0.0188,0.0231,0.0241,0.0134,0.0135,0.0136,0.0136,0,0,-0.0182,-0.02,-0.0204,-0.0205,-0.019,-0.0185,-0.0171,-0.014,-0.012,-0.0085,-0.0046,-0.0008,0.0024,0.005,0.0085,0.0131,0.0177,0.0154,0.0158,0.0192,0.0299,0.0254,0.0261,0.0207,0.0209,0.021,0.0311,0,-0.0215,-0.0252,-0.0243,-0.0257,-0.0268,-0.0228,-0.0213,-0.0177,-0.0139,-0.0095,-0.0037,0.0001,0.0017,0.0038,0.0087,0.016,0.0204,0.0147,0.0297,0.0301,0.0261,0.0271,0.0216,0.0319,0.0321,0.0323,0.0324,0,-0.0258,-0.0272,-0.0304,-0.0289,-0.0288,-0.0289,-0.0241,-0.0223,-0.0155,-0.0122,-0.0064,-0.0014,0.0057,0.0065,0.0198,0.0163,0.0221,0.0275,0.0281,0.0266,0.0275,0.0326,0.0343,0.0342,0.0341,0.0339,0.0338,0,-0.029,-0.0308,-0.0331,-0.0331,-0.0316,-0.0312,-0.0294,-0.0238,-0.0222,-0.0139,-0.012,-0.0009,0.0027,0.0137,0.0225,0.0224,0.0368,0.0386,0.0403,0.04,0.0433,0.0429,0.0477,0.0477,0.0477,0.0476,0.0476,0,-0.0326,-0.0343,-0.0355,-0.0368,-0.0383,-0.035,-0.0348,-0.0309,-0.026,-0.0239,-0.0145,-0.0106,0.0045,0.0138,0.0237,0.0342,0.0381,0.0405,0.0427,0.0407,0.0399,0.044,0.0434,0.048,0.0479,0.0479,0.0478,0,-0.0366,-0.0377,-0.0404,-0.0403,-0.041,-0.042,-0.0414,-0.0406,-0.0352,-0.0321,-0.03,-0.0176,-0.0045,0.0094,0.027,0.0332,0.0456,0.0477,0.0432,0.0449,0.0452,0.0442,0.0533,0.0533,0.0532,0.0531,0.0531,0,-0.0386,-0.0414,-0.0445,-0.0473,-0.0484,-0.0499,-0.0513,-0.0467,-0.0451,-0.0365,-0.0348,-0.0227,-0.0134,0.0088,0.0235,0.0432,0.0441,0.0502,0.049,0.0446,0.046,0.0451,0.0443,0.053,0.053,0.053,0.053,0,-0.0419,-0.0443,-0.047,-0.0534,-0.0569,-0.0588,-0.0594,-0.0588,-0.052,-0.049,-0.0379,-0.0252,-0.0114,0.0076,0.0208,0.035,0.0473,0.0497,0.0499,0.0489,0.0444,0.0456,0.0448,0.0528,0.0528,0.0528,0.0528,0,-0.044,-0.0478,-0.0527,-0.058,-0.0628,-0.0643,-0.0641,-0.0604,-0.0577,-0.047,-0.0438,-0.0268,-0.0164,0.0032,0.0166,0.029,0.0327,0.0365,0.0375,0.0379,0.0294,0.0212,0.0249,0,0,0,0,0,-0.0444,-0.05,-0.0563,-0.0612,-0.066,-0.0676,-0.0676,-0.0656,-0.06,-0.0536,-0.0479,-0.0342,-0.0127,-0.0021,0.0097,0.015,0.0339,0.029,0.0385,0.0517,0.0519,0.0441,0,0,0,0,0,0,-0.0455,-0.052,-0.0567,-0.0625,-0.0658,-0.0693,-0.0687,-0.0652,-0.0592,-0.0527,-0.0407,-0.0337,-0.0123,-0.0203,0.009,0.013,0.0201,0.0396,0.0398,0.0516,0.0518,0.052,0.044,0,0,0,0,0]}]]